Year,Month,Day,Hour,Minute,Value (Times are PST for temperature in C)
2009,10,17,13,16,13.90
2009,10,17,13,17,13.90
2009,10,17,13,18,13.80
2009,10,17,13,19,13.70
2009,10,17,13,20,13.70
2009,10,17,13,21,13.60
2009,10,17,13,22,13.50
2009,10,17,13,23,13.40
2009,10,17,13,24,13.40
2009,10,17,13,25,13.30
2009,10,17,13,26,13.30
2009,10,17,13,27,13.30
2009,10,17,13,28,13.30
2009,10,17,13,29,13.40
2009,10,17,13,30,13.40
2009,10,17,13,31,13.40
2009,10,17,13,32,13.40
2009,10,17,13,33,13.40
2009,10,17,13,34,13.40
2009,10,17,13,35,13.40
2009,10,17,13,36,13.40
2009,10,17,13,37,13.40
2009,10,17,13,38,13.50
2009,10,17,13,39,13.50
2009,10,17,13,40,13.60
2009,10,17,13,41,13.60
2009,10,17,13,42,13.60
2009,10,17,13,43,13.60
2009,10,17,13,44,13.60
2009,10,17,13,45,13.60
2009,10,17,13,46,13.60
2009,10,17,13,47,13.60
2009,10,17,13,48,13.60
2009,10,17,13,49,13.60
2009,10,17,13,50,13.60
2009,10,17,13,51,13.60
2009,10,17,13,52,13.60
2009,10,17,13,53,13.60
2009,10,17,13,54,13.60
2009,10,17,13,55,13.60
2009,10,17,13,56,13.60
2009,10,17,13,57,13.60
2009,10,17,14,13,13.30
2009,10,17,14,14,13.30
2009,10,17,14,15,13.30
2009,10,17,14,16,13.20
2009,10,17,14,17,13.20
2009,10,17,14,18,13.20
2009,10,17,14,19,13.20
2009,10,17,14,20,13.20
2009,10,17,14,21,13.10
2009,10,17,14,22,13.10
2009,10,17,14,23,13.10
2009,10,17,14,24,13.10
2009,10,17,14,25,13.10
2009,10,17,14,26,13.10
2009,10,17,14,27,13.20
2009,10,17,14,28,13.20
2009,10,17,14,29,13.20
2009,10,17,14,30,13.20
2009,10,17,14,31,13.30
2009,10,17,14,32,13.30
2009,10,17,14,33,13.30
2009,10,17,14,34,13.30
2009,10,17,14,35,13.30
2009,10,17,14,36,13.30
2009,10,17,14,37,13.40
2009,10,17,14,38,13.40
2009,10,17,14,39,13.40
2009,10,17,14,40,13.40
2009,10,17,14,41,13.40
2009,10,17,14,42,13.40
2009,10,17,14,43,13.40
2009,10,17,14,44,13.40
2009,10,17,14,45,13.40
2009,10,17,14,46,13.50
2009,10,17,14,47,13.50
2009,10,17,14,48,13.50
2009,10,17,14,49,13.50
2009,10,17,14,50,13.50
2009,10,17,14,51,13.50
2009,10,17,14,52,13.50
2009,10,17,14,53,13.50
2009,10,17,14,54,13.50
2009,10,17,14,55,13.50
2009,10,17,14,56,13.50
2009,10,17,14,57,13.50
2009,10,17,14,58,13.50
